Location: Erfurt
(50.9688°N, 11.0193°E)
Time: 10:30:57
(UTC+01:00)

ISS - Pass Details

Date: 17 November 2017
Orbit: 401 x 407 km, 51.6° (Epoch: 25 November)

Event Time Altitude Azimuth Distance (km) Brightness Sun altitude
Exits shadow 04:48:36 11° 148° (SSE) 1,374 -0.8 -26.0°
Drops below altitude 10° 04:48:48 10° 146° (SE) 1,450 -0.7 -25.9°
Sets 04:51:00 0° 136° (SE) 2,306 0.6 -25.6°
